Find USA 486

NORAD ID: 62757 Int'l Des: 2025-014 Owner: NROC Country: US operational
LEOCIRCULAR

实时位置

正在加载3D地球...

关于 USA 486

正在加载描述...

即将过境

Passes for default location (London). Set your location on the main map for personalized predictions.

高度历史

Loading altitude history...

两行轨道根数

1 62757U 25014Y 26107.08035488 .00270568 00000-0 16068-2 0 9992
2 62757 42.9996 122.2018 0001708 240.5451 119.5249 15.76439657 71137
Epoch: Apr 17, 2026 • Age: 17 hours

当前状态

高度 339.8 km
速度 7.71 km/s
星下点 26.14°N, 131.68°E
发射日期 Jan 21, 2025
运行时间 1.2 years
类型 military

技术详情

分类 Payload
质量 800.00 kg
干质量 750.00 kg
总质量 800.00 kg
长度 0.30 m
直径 4.10 m
跨度 29.00 m
形状 Box + pan
制造商 SPXS
平台类型 Starshield
阶段状态 In Orbit
所有者/国家 NROC/US

Most Searched